Date String (YYYY-MM-DD hh:mm:ss) UTC,Instrument flags,absolute air pressure of the measurement (hPa),sample flow rate (lpm),inlet stack bypass flow (lpm),air temperature of the measurement (°C),ambient temperature measured by the external sensor (°C),aerosol sample conditioner tube jacket temperature (°C),OPC LED temperature (°C),internal box temperature (°C),relative humidity of the measurement (%),span deviation,mass concentration of particles derived from Lorenz-Mie calculation of OPC scattering (μg/m³),mass concentration of particles derived from Lorenz-Mie calculation of OPC scattering (μg/m³),mass concentration of particles derived from Lorenz-Mie calculation of OPC scattering (μg/m³)
DateTimeUTC,F1_M11,P_M11,Q1_M11,Q2_M11,T1_M11,T2_M11,T3_M11,T4_M11,T5_M11,U1_M11,ZSPAN_M11,X0_M11,X2_M11,X1_M11
2023-07-02 21:00:00,SystemResetWarning,0831.6,5.00,000.00,028.6,025.5,000.0,036.9,030.0,27.2,0000.7,0009.93,0005.17,0004.65
2023-07-02 21:01:00,SystemResetWarning,0831.6,5.00,000.00,028.6,026.0,000.0,037.0,030.1,27.6,0001.6,0009.93,0005.14,0004.65
2023-07-02 21:02:00,SystemResetWarning,0831.6,4.99,000.00,028.6,026.4,000.0,037.0,030.2,28.3,0001.7,0009.91,0005.13,0004.63
2023-07-02 21:03:00,SystemResetWarning,0831.6,5.00,000.00,028.6,026.8,000.0,037.0,030.3,28.9,0001.8,0010.16,0005.13,0004.61
2023-07-02 21:04:00,SystemResetWarning,0831.6,5.00,000.00,028.7,027.1,000.0,037.0,030.4,28.4,0002.2,0010.31,0005.11,0004.60
2023-07-02 21:05:00,SystemResetWarning,0831.7,5.00,000.00,028.7,027.4,000.0,037.1,030.5,30.8,0002.1,0010.50,0005.08,0004.59
2023-07-02 21:06:00,SystemResetWarning,0831.6,5.01,000.00,028.8,027.5,000.0,037.1,030.6,29.7,0001.7,0010.47,0005.09,0004.60
2023-07-02 21:07:00,SystemResetWarning,0831.6,4.98,000.00,028.8,026.1,000.0,037.0,030.4,28.0,0001.6,0010.34,0005.06,0004.60
2023-07-02 21:08:00,SystemResetWarning,0831.6,5.01,000.00,028.7,024.8,000.0,036.9,030.1,28.6,0001.6,0010.70,0005.06,0004.59
2023-07-02 21:09:00,SystemResetWarning,0831.6,5.01,000.00,028.6,024.8,000.0,036.8,030.0,29.7,0001.4,0010.84,0005.06,0004.59
2023-07-02 21:10:00,SystemResetWarning,0831.6,5.00,000.00,028.6,025.2,000.0,036.9,029.9,30.1,0000.8,0010.97,0005.04,0004.60
2023-07-02 21:11:00,SystemResetWarning,0831.6,5.00,000.00,028.6,025.6,000.0,036.9,030.0,29.3,0001.0,0010.96,0005.03,0004.60
2023-07-02 21:12:00,SystemResetWarning,0831.6,5.01,000.00,028.6,026.1,000.0,037.0,030.1,29.7,0000.1,0010.35,0005.01,0004.60
2023-07-02 21:13:00,SystemResetWarning,0831.6,5.00,000.00,028.6,026.5,000.0,037.0,030.2,28.8,0000.0,0010.45,0005.02,0004.61
2023-07-02 21:14:00,SystemResetWarning,0831.6,5.00,000.00,028.6,026.9,000.0,037.0,030.3,28.6,0000.0,0010.27,0005.02,0004.63
2023-07-02 21:15:00,SystemResetWarning,0831.6,5.00,000.00,028.7,027.2,000.0,037.0,030.4,28.4,0000.0,0010.23,0005.02,0004.63
2023-07-02 21:16:00,SystemResetWarning,0831.6,5.00,000.00,028.7,027.5,000.0,037.1,030.5,28.3,0000.1,0010.10,0005.00,0004.64
2023-07-02 21:17:00,SystemResetWarning,0831.6,5.00,000.00,028.8,027.7,000.0,037.1,030.6,28.9,0000.1,0011.08,0004.99,0004.64
2023-07-02 21:18:00,SystemResetWarning,0831.6,4.98,000.00,028.8,026.6,000.0,037.0,030.4,27.8,0000.1,0011.29,0004.98,0004.64
2023-07-02 21:19:00,SystemResetWarning,0831.5,5.00,000.00,028.7,025.1,000.0,036.9,030.2,26.8,0000.2,0010.84,0004.99,0004.65
2023-07-02 21:20:00,SystemResetWarning,0831.5,5.01,000.00,028.7,024.9,000.0,036.9,030.1,26.7,0000.3,0010.35,0004.98,0004.66
2023-07-02 21:21:00,SystemResetWarning,0831.5,5.01,000.00,028.6,025.2,000.0,036.9,030.0,27.0,-000.0,0010.83,0005.02,0004.66
2023-07-02 21:22:00,SystemResetWarning,0831.5,5.00,000.00,028.6,025.7,000.0,036.9,030.1,26.7,-000.3,0010.70,0005.07,0004.66
2023-07-02 21:23:00,SystemResetWarning,0831.5,5.00,000.00,028.6,026.1,000.0,037.0,030.2,26.6,0000.1,0010.85,0005.07,0004.66
2023-07-02 21:24:00,SystemResetWarning,0831.4,5.00,000.00,028.6,026.5,000.0,037.0,030.3,25.9,0000.6,0010.82,0005.07,0004.66
2023-07-02 21:25:00,SystemResetWarning,0831.5,5.01,000.00,028.7,026.9,000.0,037.0,030.4,25.9,0000.7,0010.80,0005.08,0004.66
2023-07-02 21:26:00,SystemResetWarning,0831.5,4.98,000.00,028.7,027.2,000.0,037.1,030.4,25.7,0000.6,0010.83,0005.10,0004.66
2023-07-02 21:27:00,SystemResetWarning,0831.5,5.00,000.00,028.8,027.5,000.0,037.1,030.5,26.0,0000.3,0010.66,0005.13,0004.66
2023-07-02 21:28:00,SystemResetWarning,0831.4,5.00,000.00,028.8,027.5,000.0,037.1,030.6,26.0,0000.2,0011.37,0005.19,0004.68
2023-07-02 21:29:00,SystemResetWarning,0831.4,4.99,000.00,028.8,026.0,000.0,037.0,030.3,26.4,0000.0,0011.01,0005.21,0004.69
2023-07-02 21:30:00,SystemResetWarning,0831.4,5.01,000.00,028.7,024.9,000.0,036.9,030.1,26.8,0000.0,0011.05,0005.24,0004.71
2023-07-02 21:31:00,SystemResetWarning,0831.4,5.01,000.00,028.7,025.0,000.0,036.9,030.0,26.6,0000.0,0011.07,0005.26,0004.72
2023-07-02 21:32:00,SystemResetWarning,0831.3,5.00,000.00,028.6,025.3,000.0,036.9,030.0,27.0,0000.0,0012.03,0005.29,0004.72
2023-07-02 21:33:00,SystemResetWarning,0831.4,5.00,000.00,028.6,025.8,000.0,036.9,030.1,27.0,0000.0,0011.46,0005.29,0004.73
2023-07-02 21:34:00,SystemResetWarning,0831.4,5.00,000.00,028.6,026.2,000.0,037.0,030.2,28.0,0000.0,0011.31,0005.27,0004.74
2023-07-02 21:35:00,SystemResetWarning,0831.4,5.01,000.00,028.6,026.6,000.0,037.0,030.3,28.7,0000.0,0011.29,0005.30,0004.76
2023-07-02 21:36:00,SystemResetWarning,0831.4,4.98,000.00,028.7,027.0,000.0,037.0,030.4,28.9,0000.0,0011.31,0005.30,0004.78
2023-07-02 21:37:00,SystemResetWarning,0831.4,5.00,000.00,028.7,027.3,000.0,037.1,030.5,29.0,-000.0,0011.23,0005.26,0004.78
2023-07-02 21:38:00,SystemResetWarning,0831.4,4.99,000.00,028.8,027.4,000.0,037.1,030.5,28.9,-001.5,0011.40,0005.27,0004.79
2023-07-02 21:39:00,SystemResetWarning,0831.3,4.99,000.00,028.8,026.1,000.0,037.0,030.4,27.8,-001.5,0010.52,0005.24,0004.79
2023-07-02 21:40:00,SystemResetWarning,0831.3,5.00,000.00,028.7,024.8,000.0,036.9,030.1,28.1,-001.2,0010.13,0005.24,0004.80
2023-07-02 21:41:00,SystemResetWarning,0831.3,5.02,000.00,028.7,024.9,000.0,036.8,030.0,28.0,-000.6,0010.15,0005.27,0004.80
2023-07-02 21:42:00,SystemResetWarning,0831.3,5.00,000.00,028.6,025.2,000.0,036.9,029.9,26.7,-000.7,0010.22,0005.30,0004.81
2023-07-02 21:43:00,SystemResetWarning,0831.3,5.00,000.00,028.6,025.7,000.0,036.9,030.0,27.1,0000.3,0009.18,0005.26,0004.82
2023-07-02 21:44:00,SystemResetWarning,0831.3,5.00,000.00,028.6,026.1,000.0,037.0,030.1,26.5,0001.1,0009.34,0005.25,0004.83
2023-07-02 21:45:00,SystemResetWarning,0831.3,4.99,000.00,028.6,026.6,000.0,037.0,030.2,27.3,0001.3,0009.92,0005.31,0004.84
2023-07-02 21:46:00,SystemResetWarning,0831.3,4.99,000.00,028.7,026.9,000.0,037.0,030.3,27.4,0001.7,0010.41,0005.33,0004.84
2023-07-02 21:47:00,SystemResetWarning,0831.3,5.01,000.00,028.7,027.3,000.0,037.0,030.4,28.8,0002.0,0010.51,0005.32,0004.83
2023-07-02 21:48:00,SystemResetWarning,0831.3,5.00,000.00,028.8,027.4,000.0,037.1,030.5,28.4,0002.5,0010.65,0005.33,0004.83
2023-07-02 21:49:00,SystemResetWarning,0831.3,4.99,000.00,028.8,026.3,000.0,037.0,030.3,26.6,0000.5,0010.80,0005.33,0004.83
2023-07-02 21:50:00,SystemResetWarning,0831.2,5.00,000.00,028.7,024.8,000.0,036.9,030.1,27.2,0000.0,0010.37,0005.34,0004.85
2023-07-02 21:51:00,SystemResetWarning,0831.2,5.01,000.00,028.6,024.7,000.0,036.8,030.0,26.3,0000.0,0010.57,0005.33,0004.84
2023-07-02 21:52:00,SystemResetWarning,0831.3,5.00,000.00,028.6,025.0,000.0,036.9,029.9,28.0,0000.0,0010.79,0005.32,0004.83
2023-07-02 21:53:00,SystemResetWarning,0831.3,4.99,000.00,028.5,025.5,000.0,036.9,030.0,29.9,0000.0,0010.68,0005.26,0004.83
2023-07-02 21:54:00,SystemResetWarning,0831.3,5.00,000.00,028.5,026.0,000.0,036.9,030.1,27.5,0000.0,0010.68,0005.26,0004.83
2023-07-02 21:55:00,SystemResetWarning,0831.3,5.01,000.00,028.6,026.4,000.0,036.9,030.2,24.6,0000.0,0010.30,0005.26,0004.82
2023-07-02 21:56:00,SystemResetWarning,0831.3,5.00,000.00,028.6,026.8,000.0,037.0,030.3,25.3,0000.0,0009.87,0005.22,0004.81
2023-07-02 21:57:00,SystemResetWarning,0831.3,4.99,000.00,028.7,027.1,000.0,037.0,030.4,24.9,0000.0,0009.40,0005.19,0004.80
2023-07-02 21:58:00,SystemResetWarning,0831.3,4.99,000.00,028.7,027.4,000.0,037.0,030.5,25.1,0000.0,0009.84,0005.18,0004.79
2023-07-02 21:59:00,SystemResetWarning,0831.3,5.02,000.00,028.8,027.6,000.0,037.1,030.5,25.5,0000.0,0010.52,0005.19,0004.78
